Location: Oakley
(37.9974°N, 121.7125°W)
Time: 01:18:38
(UTC+00:00)

Cosmos 2219 - Pass Details

Date: 13 February 2026
Orbit: 832 x 859 km, 71.1° (Epoch: 10 March)

Event Time Altitude Azimuth Distance (km) Brightness Sun altitude
Rises 13:29:30 0° 342° (NNW) 3,432 6.2 -18.2°
Reaches altitude 10° 13:32:02 10° 347° (NNW) 2,489 5.5 -17.7°
Maximum altitude 13:37:38 54° 64° (ENE) 1,023 3.9 -16.6°
Drops below altitude 10° 13:43:09 10° 142° (SE) 2,457 6.2 -15.5°
Sets 13:45:38 0° 146° (SSE) 3,384 6.9 -15.0°
